Weather History for Aberdeen, United Kingdom

Change the Weather History Date:

Sunday, June 9, 2013

  Actual Average Record
Temperature  
Mean Temperature 50 °F -  
Max Temperature 51 °F 62 °F 73 °F (2004)
Min Temperature 48 °F 47 °F 42 °F (2008)
Degree Days  
Heating Degree Days 16    
Moisture  
Dew Point 46 °F    
Average Humidity 85    
Maximum Humidity 94    
Minimum Humidity 78    
Precipitation  
Precipitation 0.00 in 0.07 in - ()
Sea Level Pressure  
Sea Level Pressure 30.09 in    
Wind  
Wind Speed 5 mph ()    
Max Wind Speed 9 mph    
Max Gust Speed -    
Visibility 6.7 miles    
Events Rain    
Averages and records for this station are not official NWS values.
T = Trace of Precipitation, MM = Missing Value Source: Averaged Metar Reports

Daily Weather History Graph

Daily Weather History Graph

Search for Another Location

Airport:

Trip Planner

Search our weather history database for the weather conditions in past years. The results will help you decide how hot, cold, wet, or windy it might be!

Date:

Astronomy

Jun. 09, 2013 Rise Set
Actual Time 4:14 AM BST 10:02 PM BST
Civil Twilight 3:07 AM BST 11:09 PM BST
Nautical Twilight 1:40 AM BST 12:35 AM BST
Astronomical Twilight Sun does not rise Sun does not rise
Moon 5:15 AM BST (6/9) 10:19 PM BST (6/9)
Length of Visible Light 20h 01m
Length of Day
17h 47m
New Moon, 1% of the Moon is Illuminated
Jun 9
New Moon
Jun 16
First Quarter
Jun 23
Full
Jun 30
Last Quarter
Jul 8
New

Hourly Weather History & Observations

Time (BST) Temp. Dew Point Humidity Pressure Visibility Wind Dir Wind Speed Gust Speed Precip Events Conditions
12:20 AM 50.0 °F 46.4 °F 87% 30.15 in 6.2 mi SW 3.5 mph - N/A   Overcast
12:50 AM 49 °F 46 °F 84% 30.17 in 16 mi South 3.5 mph - -   Overcast
12:50 AM 48.2 °F 44.6 °F 87% 30.15 in 6.2 mi SSE 3.5 mph - N/A   Mostly Cloudy
1:20 AM 50.0 °F 46.4 °F 87% 30.15 in 6.2 mi East 3.5 mph - N/A   Overcast
1:50 AM 50.0 °F 46.4 °F 87% 30.15 in 6.2 mi WSW 2.3 mph - N/A   Mostly Cloudy
2:20 AM 50.0 °F 46.4 °F 87% 30.15 in 6.2 mi Calm Calm - N/A   Mostly Cloudy
2:50 AM 50.0 °F 46.4 °F 87% 30.12 in 6.2 mi East 2.3 mph - N/A   Mostly Cloudy
3:20 AM 50.0 °F 46.4 °F 87% 30.12 in 6.2 mi ENE 4.6 mph - N/A   Overcast
3:50 AM 49 °F 47 °F 92% 30.14 in 9 mi ESE 5.8 mph - -   Scattered Clouds
3:50 AM 50.0 °F 48.2 °F 94% 30.12 in 6.2 mi East 4.6 mph - N/A   Overcast
4:20 AM 50.0 °F 46.4 °F 87% 30.12 in 6.2 mi East 4.6 mph - N/A   Mostly Cloudy
4:50 AM 48.2 °F 46.4 °F 93% 30.12 in 6.2 mi East 4.6 mph - N/A   Overcast
5:20 AM 50.0 °F 44.6 °F 82% 30.12 in 6.2 mi ESE 4.6 mph - N/A   Mostly Cloudy
5:50 AM 50.0 °F 44.6 °F 82% 30.12 in 6.2 mi East 3.5 mph - N/A   Mostly Cloudy
6:20 AM 50.0 °F 44.6 °F 82% 30.12 in 6.2 mi East 3.5 mph - N/A   Mostly Cloudy
6:50 AM 49 °F 45 °F 80% 30.12 in 12 mi ESE 4.6 mph - -  
6:50 AM 50.0 °F 44.6 °F 82% 30.12 in 6.2 mi East 5.8 mph - N/A   Mostly Cloudy
7:20 AM 50.0 °F 44.6 °F 82% 30.12 in 6.2 mi East 4.6 mph - N/A   Mostly Cloudy
7:50 AM 50.0 °F 44.6 °F 82% 30.12 in 6.2 mi East 5.8 mph - N/A   Mostly Cloudy
8:20 AM 48.2 °F 46.4 °F 93% 30.12 in 5.0 mi East 5.8 mph - N/A   Mostly Cloudy
8:50 AM 48.2 °F 46.4 °F 93% 30.09 in 5.0 mi East 5.8 mph - N/A Rain Light Rain
9:20 AM 48.2 °F 46.4 °F 93% 30.09 in 4.3 mi East 5.8 mph - N/A Rain Light Rain
9:50 AM 49 °F 46 °F 87% 30.12 in 8 mi ESE 4.6 mph - -   Overcast
9:50 AM 50.0 °F 46.4 °F 87% 30.09 in 3.7 mi East 5.8 mph - N/A   Mostly Cloudy
10:20 AM 50.0 °F 46.4 °F 87% 30.09 in 3.7 mi East 5.8 mph - N/A   Mostly Cloudy
10:50 AM 50.0 °F 46.4 °F 87% 30.09 in 5.0 mi ESE 5.8 mph - N/A   Mostly Cloudy
11:20 AM 50.0 °F 46.4 °F 87% 30.09 in 5.6 mi ESE 5.8 mph - N/A   Mostly Cloudy
11:50 AM 50.0 °F 46.4 °F 87% 30.09 in 6.2 mi ESE 5.8 mph - N/A   Mostly Cloudy
12:20 PM 51.8 °F 46.4 °F 82% 30.09 in 6.2 mi SE 5.8 mph - N/A   Mostly Cloudy
12:50 PM 50.0 °F 46.4 °F 87% 30.09 in 6.2 mi ESE 5.8 mph - N/A   Scattered Clouds
1:20 PM 50.0 °F 46.4 °F 87% 30.09 in 6.2 mi ESE 6.9 mph - N/A   Scattered Clouds
1:50 PM 50.0 °F 46.4 °F 87% 30.09 in 6.2 mi East 9.2 mph - N/A   Scattered Clouds
2:20 PM 50.0 °F 46.4 °F 87% 30.09 in 6.2 mi SE 8.1 mph - N/A   Mostly Cloudy
2:50 PM 51.8 °F 46.4 °F 82% 30.09 in 6.2 mi ESE 8.1 mph - N/A   Mostly Cloudy
3:20 PM 51.8 °F 46.4 °F 82% 30.06 in 6.2 mi SE 8.1 mph - N/A   Mostly Cloudy
3:50 PM 51 °F 47 °F 83% 30.09 in 11 mi ESE 8.1 mph - -   Overcast
3:50 PM 50.0 °F 46.4 °F 87% 30.06 in 6.2 mi SE 6.9 mph - N/A   Mostly Cloudy
4:20 PM 51.8 °F 46.4 °F 82% 30.06 in 6.2 mi ESE 8.1 mph - N/A   Mostly Cloudy
4:50 PM 51.8 °F 46.4 °F 82% 30.06 in 6.2 mi ESE 8.1 mph - N/A   Mostly Cloudy
5:20 PM 51.8 °F 46.4 °F 82% 30.06 in 6.2 mi ESE 8.1 mph - N/A   Mostly Cloudy
5:50 PM 50.0 °F 46.4 °F 87% 30.06 in 6.2 mi East 8.1 mph - N/A   Mostly Cloudy
6:20 PM 51.8 °F 46.4 °F 82% 30.06 in 6.2 mi ESE 6.9 mph - N/A   Mostly Cloudy
6:50 PM 51 °F 46 °F 78% 30.06 in 12 mi ESE 9.2 mph - -   Overcast
6:50 PM 51.8 °F 46.4 °F 82% 30.06 in 6.2 mi SE 8.1 mph - N/A   Mostly Cloudy
7:20 PM 50.0 °F 44.6 °F 82% 30.04 in 6.2 mi East 8.1 mph - N/A   Mostly Cloudy
7:50 PM 50.0 °F 44.6 °F 82% 30.04 in 6.2 mi ESE 8.1 mph - N/A   Mostly Cloudy
8:20 PM 50.0 °F 44.6 °F 82% 30.04 in 6.2 mi ESE 6.9 mph - N/A   Mostly Cloudy
8:50 PM 50.0 °F 44.6 °F 82% 30.04 in 6.2 mi ESE 5.8 mph - N/A   Mostly Cloudy
9:20 PM 50.0 °F 46.4 °F 87% 30.06 in 6.2 mi ESE 5.8 mph - N/A   Mostly Cloudy
9:50 PM 50 °F 46 °F 80% 30.07 in 12 mi SE 4.6 mph - -   Overcast
9:50 PM 50.0 °F 46.4 °F 87% 30.06 in 6.2 mi South 4.6 mph - N/A   Overcast
10:20 PM 50.0 °F 44.6 °F 82% 30.06 in 6.2 mi SSE 5.8 mph - N/A   Mostly Cloudy
10:50 PM 50.0 °F 44.6 °F 82% 30.06 in 6.2 mi SSE 6.9 mph - N/A   Mostly Cloudy
11:20 PM 50.0 °F 44.6 °F 82% 30.06 in 6.2 mi South 5.8 mph - N/A   Mostly Cloudy
11:50 PM 50.0 °F 44.6 °F 82% 30.06 in 6.2 mi SE 5.8 mph - N/A   Mostly Cloudy